[[{"header":{"parameterUnit":"m.s-1","parameterCategory":1,"la1":30.2991,"la2":30.254,"lo1":-89.0895,"lo2":-89.0444,"dy":0.0017,"dx":0.0017,"nx":28,"ny":28,"refTime":"2025-08-23T21:00:00:Z","depth":0,"parameterNumber":2,"parameterNumberName":"U-component_of_WINDS"},"data":[0,0,0,0,0,0,0,0,0,0,0,0,0,0,0,0,0,0,0,0,0,0,0,0,0,0,0,0,0,0,0,0,0,0,0,0,0,0,0,0,0,0,0,0,0,0,0,0,0,0,0,0,0,0,0,0,0,0,0.6688,0.6688,0,0.6646,0.6645,0.6645,0.6536,0.6534,0.6531,0.6529,0.6488,0.649,0.6491,0,0,0,0,0,0,0,0,0,0,0,0,0,0.6679,0.668,0.6688,0.6688,0.6687,0.6646,0.6645,0.6645,0.6536,0.6534,0.6531,0.6528,0.6488,0.6489,0.6491,0,0,0,0,0,0,0,0,0,0,0,0,0,0.6665,0.668,0.6688,0.6628,0.6622,0.6646,0.6645,0.6645,0.6537,0.6534,0.653,0.6527,0.6488,0.6489,0.6491,0.6571,0,0,0.6496,0.6497,0,0,0,0,0,0,0,0,0.6666,0.6665,0.6637,0.6632,0.6626,0.6593,0.6627,0.662,0.6538,0.657,0.6529,0.6525,0.6526,0.6524,0.6524,0.6569,0.6567,0.6496,0.6497,0.6498,0.6498,0,0,0,0,0,0,0,0.6667,0.6666,0.6672,0.6637,0.663,0.6604,0.6598,0.6625,0.6568,0.6566,0.6558,0.6555,0.6522,0.6523,0.6522,0.6566,0.6496,0.6497,0.6498,0.6499,0.6677,0.6681,0,0,0,0,0,0,0.6676,0.6668,0.6673,0.667,0.6637,0.6607,0.6601,0.6607,0.6567,0.6558,0.6558,0.655,0.6522,0.6521,0.6521,0.6613,0.6498,0.6499,0.65,0.6673,0.6678,0.6682,0,0,0,0,0,0,0.6676,0.6677,0.6675,0.6667,0.6664,0.6611,0.6619,0.6608,0.6608,0.6561,0.655,0.6569,0.6519,0.6518,0.6559,0.661,0.65,0.6501,0.6669,0.6675,0.668,0.6799,0,0,0,0,0,0,0.6676,0.6678,0.6707,0.6668,0.6665,0.6714,0.6622,0.661,0.6611,0.66,0.6568,0.656,0.6516,0.6558,0.6561,0.6611,0.6503,0.6664,0.6671,0.6678,0.679,0.6808,0.6823,0,0,0,0,0,0.6676,0.6742,0.6709,0.671,0.67,0.6716,0.6715,0.6663,0.6616,0.6645,0.6615,0.6561,0.6604,0.6563,0.6566,0.6617,0.6661,0.6669,0.6678,0.6783,0.6804,0.6822,0,0,0,0,0,0,0.6788,0.6736,0.6698,0.6753,0.674,0.6698,0.6733,0.6687,0.6688,0.6678,0.6614,0.6608,0.6658,0.6641,0.6596,0.6693,0.6624,0.6633,0.6702,0.6722,0.6739,0.6743,0.6504,0,0,0,0,0,0.6819,0.6836,0.6789,0.6842,0.6838,0.6787,0.6792,0.6753,0.6738,0.6732,0.6704,0.6692,0.6703,0.6711,0.6718,0.6786,0.6779,0.6823,0.6839,0.6853,0.6863,0.69,0.6919,0.671,0.671,0.6709,0,0,0.6884,0.6857,0.6871,0.6864,0.6849,0.687,0.6783,0.6808,0.6823,0.6735,0.6773,0.6753,0.6735,0.6791,0.6814,0.6778,0.6919,0.6864,0.6875,0.6877,0.6911,0.6931,0.6948,0.6715,0.6714,0.6713,0,0,0.7012,0.6992,0.7035,0.7023,0.7001,0.6967,0.6978,0.6943,0.6927,0.6963,0.6899,0.6916,0.6936,0.6926,0.6924,0.7051,0.7002,0.7055,0.7141,0.7178,0.7195,0.7209,0.7257,0.7275,0.7064,0.7065,0.7065,0,0.7095,0.7122,0.7064,0.7093,0.7093,0.7015,0.7059,0.705,0.7033,0.7035,0.6995,0.7019,0.7001,0.7055,0.7086,0.7086,0.7098,0.7059,0.7197,0.7211,0.7224,0.7268,0.7286,0.7071,0.7071,0.707,0.7069,0,0.7226,0.7246,0.7283,0.7269,0.7273,0.731,0.7259,0.727,0.7231,0.7202,0.7242,0.7218,0.722,0.723,0.7192,0.7279,0.7258,0.7208,0.7138,0.7251,0.7293,0.7309,0.7081,0.7079,0.7077,0.7075,0,0,0.7423,0.7377,0.7392,0.7385,0.7357,0.7372,0.7406,0.7408,0.742,0.7411,0.744,0.7459,0.7414,0.7411,0.7372,0.7404,0.751,0.7351,0.735,0.7383,0.7607,0.7646,0.7666,0.7476,0.7479,0.7482,0.7609,0,0.7545,0.7601,0.755,0.7616,0.7635,0.7562,0.7592,0.7579,0.7553,0.7567,0.7538,0.7554,0.7492,0.749,0.7519,0.7491,0.7554,0.7481,0.7505,0.7506,0.7513,0.7687,0.7728,0.7849,0.7625,0.7627,0.7629,0,0.7695,0.7694,0.7762,0.7731,0.7737,0.7765,0.7764,0.7777,0.7762,0.7741,0.7739,0.7692,0.7725,0.7655,0.7701,0.7653,0.7659,0.7647,0.7651,0.7653,0.7576,0.7696,0.7886,0.7906,0.7653,0.7651,0.765,0,0.7835,0.785,0.7893,0.7889,0.7854,0.7876,0.7863,0.7843,0.7849,0.7848,0.7851,0.7854,0.7857,0.7861,0.7817,0.7769,0.787,0.7795,0.7855,0.7857,0.7881,0.788,0.8077,0.7882,0.7882,0.7882,0.7881,0,0.7978,0.8023,0.7956,0.7982,0.8031,0.7974,0.8024,0.8003,0.7987,0.801,0.7946,0.7969,0.7908,0.7925,0.789,0.7935,0.7936,0.7922,0.7913,0.7929,0.7931,0.7934,0.7925,0.7886,0.7885,0.7884,0.7884,0,0.8143,0.8099,0.8142,0.8105,0.8097,0.8136,0.8105,0.8129,0.8099,0.8129,0.8133,0.8087,0.8104,0.8059,0.8069,0.8046,0.8112,0.8088,0.8118,0.8111,0.8174,0.817,0.8382,0.8407,0.8194,0.8197,0.8198,0,0.8238,0.8271,0.8238,0.8249,0.8239,0.8256,0.8261,0.8207,0.8215,0.8201,0.8228,0.8239,0.8246,0.8277,0.8245,0.8253,0.823,0.8304,0.8231,0.8247,0.8234,0.8234,0.8238,0.832,0.8322,0.8324,0.8326,0,0.8412,0.8389,0.8398,0.8401,0.8409,0.8409,0.8404,0.8416,0.8358,0.8371,0.8388,0.8393,0.8404,0.8417,0.8418,0.8406,0.8358,0.8349,0.8364,0.8382,0.8398,0.8393,0.8161,0.8345,0.8343,0.8342,0.8341,0.834,0.8545,0.8572,0.8554,0.8568,0.8559,0.8556,0.8578,0.8552,0.8564,0.8569,0.8536,0.856,0.8546,0.8543,0.8536,0.8555,0.8522,0.8542,0.8548,0.8554,0.8566,0.8394,0.8555,0.8554,0.8554,0.8553,0.8553,0,0.8718,0.8703,0.8716,0.8712,0.8723,0.8675,0.8669,0.8682,0.8704,0.8694,0.8702,0.8723,0.8736,0.8706,0.8715,0.8737,0.8715,0.8741,0.874,0.8738,0.8594,0.8582,0.8759,0.8759,0.8759,0.8759,0.8759,0.8758,0.8809,0.8853,0.8828,0.8868,0.8853,0.8876,0.8876,0.8875,0.8867,0.8893,0.8904,0.8884,0.8867,0.8875,0.8885,0.8876,0.8884,0.8918,0.8902,0.8768,0.8748,0.8729,0.8717,0.892,0.892,0.9045,0.9046,0.9047]},{"header":{"parameterUnit":"m.s-1","parameterCategory":1,"la1":30.2991,"la2":30.254,"lo1":-89.0895,"lo2":-89.0444,"dy":0.0017,"dx":0.0017,"nx":28,"ny":28,"refTime":"2025-08-23T21:00:00:Z","depth":0,"parameterNumber":3,"parameterNumberName":"V-component_of_WINDS"},"data":[0,0,0,0,0,0,0,0,0,0,0,0,0,0,0,0,0,0,0,0,0,0,0,0,0,0,0,0,0,0,0,0,0,0,0,0,0,0,0,0,0,0,0,0,0,0,0,0,0,0,0,0,0,0,0,0,0,0,-2.075,-2.075,0,-2.0774,-2.0774,-2.0774,-2.0776,-2.0776,-2.0775,-2.0775,-2.0798,-2.0799,-2.0799,0,0,0,0,0,0,0,0,0,0,0,0,0,-2.0704,-2.0705,-2.075,-2.075,-2.0751,-2.0774,-2.0774,-2.0774,-2.0776,-2.0776,-2.0775,-2.0775,-2.0798,-2.0799,-2.08,0,0,0,0,0,0,0,0,0,0,0,0,0,-2.0725,-2.0705,-2.075,-2.0754,-2.0755,-2.0774,-2.0774,-2.0775,-2.0776,-2.0776,-2.0775,-2.0775,-2.0797,-2.0798,-2.08,-2.0815,0,0,-2.0804,-2.0804,0,0,0,0,0,0,0,0,-2.0724,-2.0727,-2.0753,-2.0754,-2.0755,-2.0772,-2.0766,-2.0788,-2.0776,-2.0768,-2.0775,-2.0775,-2.0789,-2.0791,-2.0796,-2.0816,-2.0817,-2.0804,-2.0804,-2.0805,-2.0805,0,0,0,0,0,0,0,-2.0723,-2.0726,-2.0759,-2.0754,-2.0754,-2.0754,-2.0757,-2.077,-2.078,-2.0769,-2.0769,-2.0772,-2.079,-2.0795,-2.0797,-2.0818,-2.0804,-2.0805,-2.0806,-2.0806,-2.0851,-2.0852,0,0,0,0,0,0,-2.072,-2.0725,-2.0759,-2.076,-2.0738,-2.0755,-2.0758,-2.0766,-2.078,-2.0782,-2.0772,-2.0772,-2.0793,-2.0796,-2.0798,-2.0817,-2.0805,-2.0806,-2.0807,-2.0851,-2.0852,-2.0852,0,0,0,0,0,0,-2.0719,-2.0723,-2.0758,-2.0742,-2.0747,-2.0757,-2.0766,-2.0767,-2.0773,-2.0783,-2.0785,-2.0776,-2.0793,-2.0796,-2.0811,-2.0817,-2.0807,-2.0808,-2.085,-2.0851,-2.0852,-2.0855,0,0,0,0,0,0,-2.0718,-2.0723,-2.073,-2.0743,-2.0748,-2.0771,-2.0766,-2.0768,-2.0775,-2.0775,-2.0787,-2.0789,-2.0793,-2.0809,-2.0812,-2.0819,-2.0809,-2.085,-2.0851,-2.0852,-2.0854,-2.0855,-2.0856,0,0,0,0,0,-2.0717,-2.0729,-2.073,-2.0734,-2.0756,-2.0771,-2.0774,-2.0779,-2.0776,-2.0782,-2.0788,-2.0788,-2.0816,-2.0811,-2.0814,-2.0821,-2.085,-2.0851,-2.0851,-2.0853,-2.0855,-2.0856,0,0,0,0,0,0,-2.0716,-2.0731,-2.0732,-2.0749,-2.0759,-2.0772,-2.078,-2.0781,-2.0791,-2.0791,-2.0796,-2.0799,-2.0813,-2.0819,-2.0812,-2.0837,-2.0833,-2.0834,-2.0833,-2.0834,-2.0836,-2.0833,-2.081,0,0,0,0,0,-2.0718,-2.073,-2.0742,-2.0756,-2.0761,-2.077,-2.0776,-2.078,-2.079,-2.0794,-2.0801,-2.081,-2.0821,-2.0828,-2.0839,-2.0855,-2.0857,-2.0862,-2.0863,-2.0864,-2.0865,-2.0874,-2.0876,-2.0855,-2.0855,-2.0855,0,0,-2.0722,-2.0732,-2.0739,-2.0756,-2.0764,-2.0776,-2.0773,-2.0785,-2.0793,-2.0795,-2.081,-2.0816,-2.0827,-2.0842,-2.0849,-2.0847,-2.0871,-2.0865,-2.0866,-2.0867,-2.0875,-2.0877,-2.0878,-2.0856,-2.0856,-2.0856,0,0,-2.0735,-2.0744,-2.0756,-2.0765,-2.0777,-2.0782,-2.0786,-2.0798,-2.0802,-2.0817,-2.0819,-2.0828,-2.0847,-2.0855,-2.0861,-2.0877,-2.0877,-2.088,-2.0886,-2.0895,-2.0896,-2.0898,-2.0903,-2.0904,-2.0882,-2.0882,-2.0882,0,-2.0738,-2.0756,-2.0762,-2.0775,-2.0782,-2.0785,-2.0797,-2.0805,-2.082,-2.0824,-2.0822,-2.0846,-2.0853,-2.087,-2.0874,-2.088,-2.0883,-2.0878,-2.0896,-2.0897,-2.0898,-2.0903,-2.0905,-2.0882,-2.0882,-2.0882,-2.0882,0,-2.0759,-2.0771,-2.078,-2.0795,-2.0803,-2.0815,-2.0823,-2.0831,-2.0833,-2.0839,-2.0854,-2.0863,-2.0875,-2.088,-2.0882,-2.0897,-2.0896,-2.0895,-2.089,-2.09,-2.0905,-2.0907,-2.0882,-2.0882,-2.0882,-2.0882,0,0,-2.0771,-2.079,-2.0793,-2.08,-2.0814,-2.0823,-2.0835,-2.0848,-2.0854,-2.0864,-2.0874,-2.089,-2.0889,-2.0896,-2.09,-2.0907,-2.0919,-2.0905,-2.0905,-2.0906,-2.0935,-2.0935,-2.0937,-2.0919,-2.092,-2.092,-2.0934,0,-2.0785,-2.0808,-2.0814,-2.0832,-2.0843,-2.0847,-2.0857,-2.0866,-2.0872,-2.0882,-2.0888,-2.0899,-2.0897,-2.0902,-2.0909,-2.0916,-2.0924,-2.0915,-2.0927,-2.0928,-2.0924,-2.094,-2.094,-2.0953,-2.0936,-2.0936,-2.0936,0,-2.0804,-2.0815,-2.0835,-2.0848,-2.0853,-2.0862,-2.0874,-2.0884,-2.0894,-2.0898,-2.0906,-2.0909,-2.0921,-2.0917,-2.0933,-2.0927,-2.0932,-2.0936,-2.0937,-2.0937,-2.0932,-2.094,-2.0957,-2.0958,-2.0939,-2.0939,-2.0939,0,-2.081,-2.083,-2.0845,-2.085,-2.0866,-2.0872,-2.0878,-2.0889,-2.0896,-2.0906,-2.0911,-2.0923,-2.0929,-2.0937,-2.0943,-2.0939,-2.0959,-2.0955,-2.0962,-2.0962,-2.0965,-2.0964,-2.0982,-2.097,-2.097,-2.097,-2.097,0,-2.0825,-2.0836,-2.0848,-2.0856,-2.0869,-2.0876,-2.0889,-2.0895,-2.0905,-2.0914,-2.0918,-2.0927,-2.0934,-2.0944,-2.0948,-2.0961,-2.0964,-2.0967,-2.0968,-2.0966,-2.0966,-2.0969,-2.0968,-2.0971,-2.097,-2.097,-2.097,0,-2.0833,-2.0841,-2.0857,-2.087,-2.0874,-2.0883,-2.0894,-2.0902,-2.0908,-2.092,-2.0924,-2.0933,-2.0945,-2.0952,-2.0966,-2.0969,-2.0983,-2.0984,-2.0979,-2.098,-2.0986,-2.0985,-2.1005,-2.1008,-2.0995,-2.0995,-2.0995,0,-2.0841,-2.085,-2.0865,-2.0872,-2.0878,-2.089,-2.0897,-2.0904,-2.0912,-2.0925,-2.0931,-2.0943,-2.0953,-2.0972,-2.0979,-2.0991,-2.0991,-2.0998,-2.0993,-2.0991,-2.099,-2.099,-2.099,-2.0998,-2.0998,-2.0999,-2.0999,0,-2.0855,-2.0858,-2.0869,-2.0882,-2.0891,-2.0901,-2.091,-2.0916,-2.0925,-2.0933,-2.0945,-2.0953,-2.0968,-2.098,-2.0991,-2.0998,-2.0999,-2.1,-2.1002,-2.1,-2.0997,-2.0998,-2.0981,-2.0999,-2.0999,-2.0999,-2.0999,-2.0999,-2.0863,-2.0871,-2.0882,-2.0894,-2.0902,-2.0912,-2.092,-2.0927,-2.0938,-2.0951,-2.0955,-2.0967,-2.0978,-2.0994,-2.1,-2.101,-2.1009,-2.1012,-2.1013,-2.1013,-2.1013,-2.0996,-2.1012,-2.1012,-2.1012,-2.1012,-2.1012,0,-2.0875,-2.0883,-2.0894,-2.0908,-2.0917,-2.0919,-2.093,-2.0938,-2.0949,-2.0959,-2.0968,-2.0982,-2.0994,-2.1003,-2.1014,-2.102,-2.1021,-2.1023,-2.1022,-2.1023,-2.1013,-2.101,-2.1022,-2.1022,-2.1022,-2.1022,-2.1022,-2.1022,-2.0883,-2.0897,-2.0902,-2.0919,-2.0927,-2.094,-2.0946,-2.0954,-2.0962,-2.0977,-2.0987,-2.0993,-2.1002,-2.1015,-2.1025,-2.1027,-2.1031,-2.1033,-2.1035,-2.1025,-2.1024,-2.1023,-2.102,-2.1034,-2.1034,-2.1044,-2.1044,-2.1044]}]]